Weather History for KJHW - March, 2013

Change the Weather History Date:

Tuesday, March 19, 2013

  Actual Average Record
Temperature  
Mean Temperature 26 °F -  
Max Temperature 32 °F 40 °F 66 °F (2012)
Min Temperature 21 °F 18 °F 0 °F (1993)
Degree Days  
Heating Degree Days 38    
Moisture  
Dew Point 23 °F    
Average Humidity 86    
Maximum Humidity 93    
Minimum Humidity 74    
Precipitation  
Precipitation 0.01 in - - ()
Sea Level Pressure  
Sea Level Pressure 29.72 in    
Wind  
Wind Speed 11 mph (WSW)    
Max Wind Speed 20 mph    
Max Gust Speed 26 mph    
Visibility 5 miles    
Events      
Averages and records for this station are not official NWS values.
T = Trace of Precipitation, MM = Missing Value Source: NWS Daily Summary

Daily Weather History Graph

Daily Weather History Graph

Search for Another Location

Airport or City:

Trip Planner

Search our weather history database for the weather conditions in past years. The results will help you decide how hot, cold, wet, or windy it might be!

Date:

Astronomy

Mar. 19, 2013 Rise Set
Actual Time 7:21 AM EDT 7:28 PM EDT
Civil Twilight 6:53 AM EDT 7:56 PM EDT
Nautical Twilight 6:21 AM EDT 8:29 PM EDT
Astronomical Twilight 5:47 AM EDT 9:02 PM EDT
Moon 12:04 PM EDT (3/19) 2:19 AM EDT (3/19)
Length of Visible Light 13h 02m
Length of Day
12h 06m
Waxing Crescent, 49% of the Moon is Illuminated
Mar 19
Waxing Crescent
Mar 19
First Quarter
Mar 27
Full
Apr 3
Last Quarter
Apr 10
New

Hourly Weather History & Observations

Time (EDT) Temp. Windchill Dew Point Humidity Pressure Visibility Wind Dir Wind Speed Gust Speed Precip Events Conditions
12:15 AM 30.2 °F 21.9 °F 28.4 °F 93% 29.66 in 10.0 mi South 9.2 mph - N/A   Overcast
12:35 AM 30.2 °F 21.3 °F 28.4 °F 93% 29.66 in 10.0 mi South 10.4 mph 16.1 mph N/A   Overcast
12:55 AM 30.2 °F 19.8 °F 28.4 °F 93% 29.65 in 10.0 mi South 13.8 mph - N/A   Overcast
1:15 AM 30.2 °F 19.8 °F 28.4 °F 93% 29.64 in 10.0 mi South 13.8 mph - N/A   Overcast
1:35 AM 32.0 °F 24.2 °F 28.4 °F 87% 29.65 in 6.0 mi South 9.2 mph - N/A   Overcast
1:55 AM 32.0 °F 24.2 °F 30.2 °F 93% 29.65 in 7.0 mi South 9.2 mph - N/A   Overcast
2:15 AM 32.0 °F 24.2 °F 30.2 °F 93% 29.65 in 7.0 mi South 9.2 mph - N/A   Overcast
2:35 AM 32.0 °F 24.8 °F 30.2 °F 93% 29.66 in 5.0 mi South 8.1 mph - N/A   Overcast
2:55 AM 32.0 °F 24.8 °F 30.2 °F 93% 29.66 in 3.0 mi SSW 8.1 mph - N/A   Overcast
3:15 AM 32.0 °F 25.6 °F 30.2 °F 93% 29.66 in 4.0 mi SW 6.9 mph - N/A   Overcast
3:35 AM 32.0 °F 27.5 °F 30.2 °F 93% 29.66 in 2.0 mi SW 4.6 mph - N/A   Overcast
3:55 AM 32.0 °F 26.4 °F 30.2 °F 93% 29.66 in 0.8 mi WSW 5.8 mph - N/A   Overcast
4:15 AM 32.0 °F 24.8 °F 30.2 °F 93% 29.66 in 2.5 mi WSW 8.1 mph - N/A   Overcast
4:35 AM 32.0 °F 25.6 °F 30.2 °F 93% 29.66 in 4.0 mi SW 6.9 mph - N/A   Overcast
4:55 AM 32.0 °F 22.1 °F 30.2 °F 93% 29.66 in 4.0 mi WSW 13.8 mph 19.6 mph N/A   Overcast
5:15 AM 32.0 °F 21.6 °F 30.2 °F 93% 29.68 in 8.0 mi West 15.0 mph 26.5 mph N/A   Overcast
5:35 AM 32.0 °F 21.6 °F 28.4 °F 87% 29.68 in 10.0 mi West 15.0 mph - N/A   Overcast
5:55 AM 30.2 °F 19.8 °F 28.4 °F 93% 29.68 in 10.0 mi WSW 13.8 mph - N/A   Overcast
6:15 AM 30.2 °F 18.5 °F 28.4 °F 93% 29.69 in 10.0 mi WSW 17.3 mph 21.9 mph N/A   Overcast
6:35 AM 30.2 °F 18.9 °F 26.6 °F 86% 29.69 in 10.0 mi WSW 16.1 mph 20.7 mph N/A   Overcast
6:55 AM 30.2 °F 22.6 °F 24.8 °F 80% 29.69 in 10.0 mi SW 8.1 mph - N/A   Overcast
7:15 AM 30.2 °F 22.6 °F 24.8 °F 80% 29.69 in 10.0 mi SSW 8.1 mph - N/A   Overcast
7:35 AM 30.2 °F 22.6 °F 26.6 °F 86% 29.68 in 10.0 mi SSW 8.1 mph - N/A   Overcast
7:55 AM 30.2 °F 21.3 °F 24.8 °F 80% 29.68 in 10.0 mi SSW 10.4 mph - N/A   Overcast
8:15 AM 30.2 °F 19.8 °F 26.6 °F 86% 29.67 in 10.0 mi South 13.8 mph 18.4 mph N/A   Overcast
8:35 AM 30.2 °F 21.9 °F 26.6 °F 86% 29.67 in 10.0 mi SSW 9.2 mph 16.1 mph N/A   Mostly Cloudy
8:55 AM 30.2 °F 20.2 °F 26.6 °F 86% 29.67 in 9.0 mi SW 12.7 mph 17.3 mph N/A   Mostly Cloudy
9:15 AM 30.2 °F 21.3 °F 26.6 °F 86% 29.67 in 10.0 mi SW 10.4 mph - N/A   Overcast
9:35 AM 30.2 °F 19.8 °F 24.8 °F 80% 29.66 in 10.0 mi SW 13.8 mph 18.4 mph N/A   Overcast
9:55 AM 32.0 °F 21.6 °F 24.8 °F 75% 29.66 in 10.0 mi SW 15.0 mph 18.4 mph N/A   Overcast
10:15 AM 28.4 °F 16.6 °F 24.8 °F 86% 29.68 in 7.0 mi WNW 16.1 mph - N/A   Overcast
10:35 AM 28.4 °F 18.5 °F 23.0 °F 80% 29.67 in 8.0 mi WNW 11.5 mph - N/A   Overcast
10:55 AM 28.4 °F 19.1 °F 23.0 °F 80% 29.68 in 4.0 mi West 10.4 mph - N/A   Overcast
11:15 AM 26.6 °F 15.7 °F 23.0 °F 86% 29.68 in 2.0 mi West 12.7 mph 18.4 mph N/A   Overcast
11:35 AM 26.6 °F 16.2 °F 21.2 °F 80% 29.68 in 2.5 mi West 11.5 mph 17.3 mph N/A   Overcast
11:55 AM 26.6 °F 15.7 °F 21.2 °F 80% 29.68 in 9.0 mi WSW 12.7 mph 18.4 mph N/A   Mostly Cloudy
12:15 PM 26.6 °F 13.8 °F 19.4 °F 74% 29.68 in 7.0 mi WSW 17.3 mph - N/A   Mostly Cloudy
12:35 PM 23.0 °F 9.6 °F 15.8 °F 74% 29.70 in 1.2 mi WNW 16.1 mph 20.7 mph N/A   Overcast
12:55 PM 23.0 °F 8.3 °F 17.6 °F 80% 29.72 in 1.8 mi West 19.6 mph 23.0 mph N/A   Overcast
1:15 PM 23.0 °F 10.6 °F 17.6 °F 80% 29.72 in 1.8 mi West 13.8 mph 18.4 mph N/A   Overcast
1:35 PM 23.0 °F 11.1 °F 17.6 °F 80% 29.73 in 2.0 mi West 12.7 mph - N/A   Overcast
2:15 PM 24.8 °F 11.5 °F 17.6 °F 74% 29.73 in 2.5 mi West 17.3 mph 25.3 mph N/A   Mostly Cloudy
2:35 PM 24.8 °F 11.9 °F 17.6 °F 74% 29.73 in 3.0 mi WSW 16.1 mph 23.0 mph N/A   Overcast
2:55 PM 23.0 °F 11.7 °F 17.6 °F 80% 29.73 in 2.5 mi WSW 11.5 mph - N/A   Overcast
3:15 PM 23.0 °F 13.1 °F 19.4 °F 86% 29.74 in 3.0 mi SW 9.2 mph 18.4 mph N/A   Overcast
3:35 PM 24.8 °F 13.4 °F 19.4 °F 80% 29.74 in 2.5 mi WSW 12.7 mph 18.4 mph N/A   Overcast
3:55 PM 23.0 °F 10.6 °F 19.4 °F 86% 29.75 in 1.0 mi WSW 13.8 mph 18.4 mph N/A   Overcast
4:15 PM 24.8 °F 11.5 °F 17.6 °F 74% 29.76 in 1.2 mi WSW 17.3 mph - N/A   Overcast
4:35 PM 23.0 °F 10.6 °F 17.6 °F 80% 29.77 in 0.8 mi WSW 13.8 mph 20.7 mph N/A   Overcast
4:55 PM 23.0 °F 8.3 °F 17.6 °F 80% 29.77 in 2.0 mi West 19.6 mph 25.3 mph N/A   Overcast
5:15 PM 23.0 °F 11.1 °F 17.6 °F 80% 29.78 in 1.8 mi West 12.7 mph 20.7 mph N/A   Overcast
5:35 PM 23.0 °F 10.6 °F 17.6 °F 80% 29.79 in 1.0 mi West 13.8 mph 20.7 mph N/A   Overcast
5:55 PM 23.0 °F 10.1 °F 15.8 °F 74% 29.79 in 4.0 mi WSW 15.0 mph 21.9 mph N/A   Mostly Cloudy
6:15 PM 23.0 °F 9.6 °F 17.6 °F 80% 29.79 in 2.0 mi WSW 16.1 mph 25.3 mph N/A   Overcast
6:35 PM 23.0 °F 9.2 °F 17.6 °F 80% 29.80 in 3.0 mi West 17.3 mph - N/A   Overcast
6:55 PM 23.0 °F 9.6 °F 17.6 °F 80% 29.80 in 1.8 mi WSW 16.1 mph 20.7 mph N/A   Overcast
7:15 PM 21.2 °F 10.1 °F 17.6 °F 86% 29.80 in 2.5 mi WSW 10.4 mph 16.1 mph N/A   Overcast
7:35 PM 21.2 °F 7.8 °F 17.6 °F 86% 29.80 in 1.8 mi WSW 15.0 mph - N/A   Overcast
7:55 PM 21.2 °F 8.9 °F 17.6 °F 86% 29.80 in 1.8 mi WSW 12.7 mph - N/A   Overcast
8:15 PM 21.2 °F 10.9 °F 17.6 °F 86% 29.80 in 3.0 mi WSW 9.2 mph - N/A   Overcast
8:35 PM 21.2 °F 10.1 °F 17.6 °F 86% 29.80 in 2.5 mi SW 10.4 mph - N/A   Overcast
8:55 PM 21.2 °F 10.9 °F 17.6 °F 86% 29.80 in 1.8 mi SW 9.2 mph - N/A   Overcast
9:15 PM 21.2 °F 10.9 °F 19.4 °F 93% 29.81 in 1.2 mi SW 9.2 mph - N/A   Overcast
9:35 PM 21.2 °F 10.9 °F 19.4 °F 93% 29.81 in 1.2 mi WSW 9.2 mph - N/A   Overcast
9:55 PM 21.2 °F 9.5 °F 19.4 °F 93% 29.81 in 0.5 mi West 11.5 mph 19.6 mph N/A   Overcast
10:15 PM 21.2 °F 8.9 °F 17.6 °F 86% 29.81 in 2.0 mi West 12.7 mph 18.4 mph N/A   Overcast
10:35 PM 21.2 °F 10.9 °F 19.4 °F 93% 29.81 in 2.0 mi West 9.2 mph - N/A   Overcast
10:55 PM 21.2 °F 11.7 °F 19.4 °F 93% 29.81 in 1.8 mi West 8.1 mph - N/A   Overcast
11:15 PM 21.2 °F 8.3 °F 19.4 °F 93% 29.81 in 2.0 mi West 13.8 mph 20.7 mph N/A   Overcast
11:35 PM 21.2 °F 8.9 °F 19.4 °F 93% 29.82 in 1.2 mi West 12.7 mph - N/A   Overcast
11:55 PM 21.2 °F 7.8 °F 19.4 °F 93% 29.82 in 1.2 mi West 15.0 mph 19.6 mph N/A   Overcast